Location: Omaha
(41.2590°N, 95.9380°W)
Time: 05:28:54
(UTC-05:00)

ISS - Pass Details

Date: 07 October 2017
Orbit: 401 x 408 km, 51.6° (Epoch: 20 October)

Event Time Altitude Azimuth Distance (km) Brightness Sun altitude
Rises 19:37:53 0° 304° (NW) 2,325 1.1 -8.9°
Reaches altitude 10° 19:40:45 10° 331° (NNW) 1,467 -0.6 -9.4°
Maximum altitude 19:42:33 14° 5° (N) 1,257 -1.4 -9.7°
Drops below altitude 10° 19:44:21 10° 38° (NE) 1,469 -1.3 -10.1°
Enters shadow 19:44:59 - 47° (NE) 1,620 -1.2 -10.2°
